Content
SEND FEEDBACK

Daily
Averages
Monthly
Summary
Greece

ANDRAVIDHA, GREECE


Home > Europe > Greece
Elevation: 50 feet     Latitude: 37 55N     Longitude: 021 17E

WEATHER
 
SELECT A DAY
Number of Records: 87,356;   Date Range: 7/11/96 - 7/20/14
 
SHARE

PRINT THIS DATA

[ ← Previous Day ]
WEATHER ALMANAC - JULY 6, 2013
[ Next Day → ]
[ °C ]   °F
Weather ElementAverageHighLow
Temperature77.7 °F86 °F (2:50 pm)64.4 °F (5:50 am)
Dewpoint62.6 °F66.2 °F (12:50 am)57.2 °F (3:50 pm)
Humidity61 %88 % (12:50 am)33 % (3:00 pm)
Barometer29.88 in29.92 in (12:50 am)29.86 in (7:50 am)
Wind Speed6.4 mph15 mph (12:50 pm)
Weather ElementAverage
Visibility6.2 mi
Wind DirectionWSW (234.6 °)

Weather ElementTotal
Precipitation---
Cooling Degree Days10.2 (Base 65)
Growing Degree Days25.2 (Base 50)
Averaged from 42 records on July 6, 2013
WEATHER CONDITIONS BREAKOUT
WIND DIRECTION BREAKOUT
WEATHER BY HOUR - JULY 6, 2013
[ °C ]   °F
Local TimeTemperatureDewpointHumidityBarometerVisibilityWind DirectionWind SpeedGust SpeedPrecipitationEventsConditions
12:50 AM69.8 °F66.2 °F88 %29.92 inCalmClear
3:00 AM68.0 °F64.0 °F85 %29.92 in6.0 miCalm
5:50 AM64.4 °F60.8 °F88 %29.89 inCalmClear
6:20 AM64.4 °F60.8 °F88 %29.89 inCalmClear
6:50 AM64.4 °F60.8 °F88 %29.89 inCalmClear
7:20 AM66.2 °F60.8 °F83 %29.89 inCalmClear
7:50 AM71.6 °F62.6 °F73 %29.86 inCalmClear
8:20 AM73.4 °F62.6 °F69 %29.89 inCalmClear
8:50 AM73.4 °F62.6 °F69 %29.89 in6.2 miNW (320°)4.6 mphPartly Cloudy
9:00 AM74.0 °F63.0 °F61 %29.91 in6.0 miNW (320°)4.6 mphScattered Clouds
9:20 AM77.0 °F64.4 °F65 %29.89 in6.2 miNorth (360°)6.9 mphPartly Cloudy
9:50 AM77.0 °F66.2 °F69 %29.89 in6.2 miNNW (330°)6.9 mphPartly Cloudy
10:20 AM78.8 °F66.2 °F65 %29.89 in6.2 miNW (320°)6.9 mphPartly Cloudy
10:50 AM80.6 °F64.4 °F58 %29.89 in6.2 miCalmPartly Cloudy
11:20 AM80.6 °F64.4 °F58 %29.89 in6.2 miNorth (350°)8.1 mphPartly Cloudy
11:50 AM80.6 °F64.4 °F58 %29.89 in6.2 miNW (320°)8.1 mphPartly Cloudy
12:20 PM82.4 °F62.6 °F51 %29.89 in6.2 miNW (320°)10.4 mphPartly Cloudy
12:50 PM82.4 °F60.8 °F48 %29.89 in6.2 miNNW (340°)15.0 mphPartly Cloudy
1:20 PM84.2 °F62.6 °F48 %29.89 in6.2 miNNW (330°)9.2 mphPartly Cloudy
1:50 PM84.2 °F60.8 °F45 %29.89 in6.2 miNNW (330°)11.5 mphPartly Cloudy
2:20 PM84.2 °F59.0 °F42 %29.89 in6.2 miNW (310°)9.2 mphPartly Cloudy
2:50 PM86.0 °F60.8 °F43 %29.89 in6.2 miNW (320°)10.4 mphPartly Cloudy
3:00 PM86.0 °F61.0 °F33 %29.89 in6.0 miNW (320°)10.4 mphScattered Clouds
3:20 PM84.2 °F59.0 °F42 %29.89 in6.2 miNW (320°)12.7 mphPartly Cloudy
3:50 PM86.0 °F57.2 °F37 %29.86 in6.2 miNW (310°)11.5 mphPartly Cloudy
4:20 PM86.0 °F60.8 °F43 %29.86 in6.2 miWNW (300°)10.4 mphPartly Cloudy
4:50 PM84.2 °F62.6 °F48 %29.86 in6.2 miNW (310°)11.5 mphPartly Cloudy
5:20 PM84.2 °F60.8 °F45 %29.86 in6.2 miWNW (300°)11.5 mphPartly Cloudy
5:50 PM84.2 °F59.0 °F42 %29.86 in6.2 miWNW (300°)12.7 mphPartly Cloudy
6:20 PM84.2 °F59.0 °F42 %29.86 in6.2 miWNW (290°)8.1 mphPartly Cloudy
6:50 PM84.2 °F62.6 °F48 %29.86 in6.2 miWNW (300°)8.1 mphPartly Cloudy
7:20 PM80.6 °F64.4 °F58 %29.86 in6.2 miWNW (290°)9.2 mphPartly Cloudy
7:50 PM78.8 °F66.2 °F65 %29.86 in6.2 miWNW (300°)8.1 mphPartly Cloudy
8:20 PM78.8 °F66.2 °F65 %29.86 in6.2 miWNW (290°)5.8 mphPartly Cloudy
8:50 PM77.0 °F64.4 °F65 %29.86 in6.2 miNorth (360°)5.8 mphPartly Cloudy
9:00 PM77.0 °F65.0 °F58 %29.88 in6.0 miNorth5.8 mphScattered Clouds
9:20 PM73.4 °F66.2 °F78 %29.86 in6.2 miNNW (330°)5.8 mphPartly Cloudy
9:50 PM75.2 °F64.4 °F69 %29.89 in6.2 miNorth (360°)5.8 mphPartly Cloudy
10:20 PM73.4 °F62.6 °F69 %29.89 in6.2 miNNW (340°)9.2 mphPartly Cloudy
10:50 PM73.4 °F62.6 °F69 %29.89 in6.2 miNNW (330°)5.8 mphPartly Cloudy
11:20 PM73.4 °F62.6 °F69 %29.89 in6.2 miCalmPartly Cloudy
11:50 PM71.6 °F62.6 °F73 %29.92 inCalmClear
Hourly data recorded from LGAD, located miles away from Andravidha, Greece







STORIES FROM OUR PARTNERS